Time,TemperatureF,DewpointF,PressureIn,WindDirection,WindDirectionDegrees,WindSpeedMPH,WindSpeedGustMPH,Humidity,HourlyPrecipIn,Conditions,Clouds,dailyrainin,SoftwareType,DateUTC
2013-02-28 00:02:00,30.0,29.0,29.93,WNW,302,0.0,3.0,95,0.00,,,0.00,,2013-02-28 05:02:00,
2013-02-28 00:11:00,30.0,29.0,29.93,WNW,302,0.0,3.0,95,0.00,,,0.00,,2013-02-28 05:11:00,
2013-02-28 00:22:00,30.0,29.0,29.92,NW,321,0.0,2.0,95,0.00,,,0.00,,2013-02-28 05:22:00,
2013-02-28 00:32:00,30.0,29.0,29.91,NW,311,1.0,6.0,95,0.00,,,0.00,,2013-02-28 05:32:00,
2013-02-28 00:42:00,30.0,29.0,29.91,NW,311,1.0,6.0,95,0.00,,,0.00,,2013-02-28 05:42:00,
2013-02-28 00:52:00,30.0,29.0,29.91,NW,319,1.0,3.0,95,0.00,,,0.00,,2013-02-28 05:52:00,
2013-02-28 01:01:00,30.0,29.0,29.90,NE,41,1.0,3.0,95,0.00,,,0.00,,2013-02-28 06:01:00,
2013-02-28 01:11:00,30.0,29.0,29.90,NE,41,1.0,3.0,95,0.00,,,0.00,,2013-02-28 06:11:00,
2013-02-28 01:22:00,30.0,29.0,29.89,NE,38,1.0,2.0,95,0.00,,,0.00,,2013-02-28 06:22:00,
2013-02-28 01:32:00,30.0,29.0,29.88,NW,313,0.0,2.0,95,0.00,,,0.00,,2013-02-28 06:32:00,
2013-02-28 01:42:00,30.0,29.0,29.88,NW,313,0.0,2.0,95,0.00,,,0.00,,2013-02-28 06:42:00,
2013-02-28 01:52:00,30.0,29.0,29.88,NW,313,0.0,2.0,95,0.00,,,0.00,,2013-02-28 06:52:00,
2013-02-28 02:01:00,30.0,29.0,29.86,ENE,68,0.0,0.0,95,0.00,,,0.00,,2013-02-28 07:01:00,
2013-02-28 02:11:00,30.0,29.0,29.86,ENE,68,0.0,0.0,95,0.00,,,0.00,,2013-02-28 07:11:00,
2013-02-28 02:22:00,27.0,26.0,29.85,ENE,64,0.0,1.0,95,0.00,,,0.00,,2013-02-28 07:22:00,
2013-02-28 07:02:00,30.0,29.0,29.82,ENE,58,0.0,1.0,96,0.00,,,0.00,,2013-02-28 12:02:00,
2013-02-28 07:12:00,30.0,29.0,29.82,ENE,58,0.0,1.0,96,0.00,,,0.00,,2013-02-28 12:12:00,
2013-02-28 07:22:00,30.0,29.0,29.83,ENE,58,0.0,0.0,96,0.00,,,0.00,,2013-02-28 12:22:00,
2013-02-28 07:32:00,30.0,29.0,29.82,NE,36,0.0,0.0,96,0.00,,,0.00,,2013-02-28 12:32:00,
2013-02-28 07:42:00,30.0,29.0,29.82,NE,36,0.0,0.0,96,0.00,,,0.00,,2013-02-28 12:42:00,
2013-02-28 07:53:00,31.0,30.0,29.82,ENE,65,0.0,0.0,96,0.00,,,0.00,,2013-02-28 12:53:00,
2013-02-28 08:02:00,31.0,30.0,29.82,ENE,67,0.0,0.0,96,0.00,,,0.00,,2013-02-28 13:02:00,
2013-02-28 08:12:00,31.0,30.0,29.82,ENE,67,0.0,0.0,96,0.00,,,0.00,,2013-02-28 13:12:00,
2013-02-28 08:22:00,32.0,31.0,29.82,NE,50,0.0,0.0,96,0.00,,,0.00,,2013-02-28 13:22:00,
2013-02-28 08:32:00,32.0,31.0,29.82,NE,50,0.0,0.0,96,0.00,,,0.00,,2013-02-28 13:32:00,
2013-02-28 08:42:00,32.0,31.0,29.82,NE,50,0.0,0.0,96,0.00,,,0.00,,2013-02-28 13:42:00,
2013-02-28 08:52:00,32.0,31.0,29.81,ENE,68,0.0,1.0,96,0.00,,,0.00,,2013-02-28 13:52:00,
2013-02-28 09:02:00,32.0,31.0,29.81,ENE,68,0.0,0.0,96,0.00,,,0.00,,2013-02-28 14:02:00,
2013-02-28 09:11:00,33.0,32.0,29.81,ENE,68,0.0,0.0,95,0.00,,,0.00,,2013-02-28 14:11:00,
2013-02-28 09:22:00,33.0,32.0,29.81,ENE,68,0.0,0.0,95,0.00,,,0.00,,2013-02-28 14:22:00,
2013-02-28 09:32:00,33.0,32.0,29.81,WSW,240,0.0,1.0,95,0.00,,,0.00,,2013-02-28 14:32:00,
2013-02-28 09:42:00,33.0,32.0,29.81,WSW,240,0.0,1.0,95,0.00,,,0.00,,2013-02-28 14:42:00,
2013-02-28 09:52:00,33.0,32.0,29.81,WSW,240,0.0,1.0,95,0.00,,,0.00,,2013-02-28 14:52:00,
2013-02-28 10:02:00,34.0,32.0,29.80,NE,38,0.0,2.0,93,0.00,,,0.00,,2013-02-28 15:02:00,
2013-02-28 10:11:00,34.0,32.0,29.80,NE,38,0.0,2.0,93,0.00,,,0.00,,2013-02-28 15:11:00,
2013-02-28 10:22:00,35.0,33.0,29.81,NNE,24,0.0,1.0,94,0.00,,,0.00,,2013-02-28 15:22:00,
2013-02-28 10:32:00,37.0,35.0,29.80,ENE,76,0.0,1.0,93,0.00,,,0.00,,2013-02-28 15:32:00,
2013-02-28 10:42:00,37.0,35.0,29.80,ENE,76,0.0,1.0,93,0.00,,,0.00,,2013-02-28 15:42:00,
2013-02-28 10:52:00,38.0,36.0,29.80,East,96,0.0,1.0,92,0.00,,,0.00,,2013-02-28 15:52:00,
2013-02-28 11:02:00,38.0,35.0,29.80,SSW,210,1.0,5.0,90,0.00,,,0.00,,2013-02-28 16:02:00,
2013-02-28 11:12:00,38.0,35.0,29.80,SSW,210,1.0,5.0,90,0.00,,,0.00,,2013-02-28 16:12:00,
2013-02-28 11:22:00,37.0,34.0,29.80,SW,226,0.0,3.0,90,0.00,,,0.00,,2013-02-28 16:22:00,
2013-02-28 11:32:00,38.0,35.0,29.80,WSW,253,1.0,3.0,89,0.02,,,0.02,,2013-02-28 16:32:00,
2013-02-28 11:42:00,38.0,35.0,29.80,WSW,253,1.0,3.0,89,0.02,,,0.02,,2013-02-28 16:42:00,
2013-02-28 11:53:00,39.0,36.0,29.80,WSW,250,1.0,4.0,90,0.04,,,0.04,,2013-02-28 16:53:00,
2013-02-28 12:02:00,39.0,36.0,29.80,WSW,245,1.0,5.0,89,0.07,,,0.07,,2013-02-28 17:02:00,
2013-02-28 12:12:00,38.0,34.0,29.80,WSW,240,0.0,3.0,87,0.11,,,0.11,,2013-02-28 17:12:00,
2013-02-28 12:22:00,38.0,34.0,29.80,WSW,240,0.0,3.0,87,0.11,,,0.11,,2013-02-28 17:22:00,
2013-02-28 12:32:00,40.0,37.0,29.80,WSW,240,0.0,3.0,89,0.12,,,0.14,,2013-02-28 17:32:00,
2013-02-28 12:42:00,40.0,37.0,29.80,WSW,240,0.0,3.0,89,0.12,,,0.14,,2013-02-28 17:42:00,
2013-02-28 12:53:00,41.0,38.0,29.79,SE,134,1.0,3.0,88,0.13,,,0.17,,2013-02-28 17:53:00,
2013-02-28 13:02:00,41.0,37.0,29.78,SSW,193,0.0,3.0,87,0.13,,,0.21,,2013-02-28 18:02:00,
2013-02-28 13:12:00,41.0,37.0,29.78,SSW,193,0.0,3.0,87,0.13,,,0.21,,2013-02-28 18:12:00,
2013-02-28 13:22:00,42.0,38.0,29.78,SSW,201,1.0,3.0,86,0.13,,,0.24,,2013-02-28 18:22:00,
2013-02-28 13:32:00,42.0,38.0,29.77,SW,236,2.0,4.0,85,0.13,,,0.27,,2013-02-28 18:32:00,
2013-02-28 13:42:00,42.0,38.0,29.77,SW,236,2.0,4.0,85,0.13,,,0.27,,2013-02-28 18:42:00,
2013-02-28 13:52:00,41.0,37.0,29.77,WSW,240,2.0,4.0,86,0.13,,,0.31,,2013-02-28 18:52:00,
2013-02-28 14:02:00,42.0,38.0,29.76,WSW,248,1.0,5.0,86,0.14,,,0.35,,2013-02-28 19:02:00,
2013-02-28 14:12:00,42.0,38.0,29.76,WSW,248,1.0,5.0,86,0.14,,,0.35,,2013-02-28 19:12:00,
2013-02-28 14:22:00,42.0,38.0,29.76,WSW,248,1.0,4.0,86,0.13,,,0.37,,2013-02-28 19:22:00,
2013-02-28 14:32:00,42.0,38.0,29.76,WSW,248,1.0,4.0,86,0.13,,,0.37,,2013-02-28 19:32:00,
2013-02-28 14:42:00,42.0,38.0,29.76,WSW,248,1.0,4.0,86,0.13,,,0.37,,2013-02-28 19:42:00,
2013-02-28 14:52:00,42.0,38.0,29.75,SW,222,1.0,2.0,85,0.10,,,0.41,,2013-02-28 19:52:00,
2013-02-28 15:01:00,43.0,38.0,29.75,WSW,255,0.0,2.0,84,0.08,,,0.43,,2013-02-28 20:01:00,
2013-02-28 15:12:00,43.0,38.0,29.75,WSW,255,0.0,2.0,84,0.08,,,0.43,,2013-02-28 20:12:00,
2013-02-28 15:22:00,44.0,39.0,29.75,North,354,0.0,3.0,82,0.06,,,0.44,,2013-02-28 20:22:00,
2013-02-28 15:32:00,44.0,38.0,29.75,SE,125,0.0,3.0,79,0.05,,,0.45,,2013-02-28 20:32:00,
2013-02-28 15:42:00,44.0,38.0,29.75,SE,125,0.0,3.0,79,0.05,,,0.45,,2013-02-28 20:42:00,
2013-02-28 15:52:00,41.0,37.0,29.75,ESE,115,1.0,5.0,84,0.05,,,0.46,,2013-02-28 20:52:00,
2013-02-28 16:02:00,40.0,36.0,29.75,SSE,148,1.0,5.0,86,0.04,,,0.47,,2013-02-28 21:02:00,
2013-02-28 16:11:00,40.0,36.0,29.75,SSE,148,1.0,5.0,86,0.04,,,0.47,,2013-02-28 21:11:00,
2013-02-28 16:22:00,40.0,36.0,29.75,SSE,148,1.0,5.0,86,0.04,,,0.47,,2013-02-28 21:22:00,
2013-02-28 16:32:00,40.0,36.0,29.74,NNE,30,0.0,5.0,87,0.04,,,0.48,,2013-02-28 21:32:00,
2013-02-28 16:42:00,40.0,36.0,29.74,NNE,30,0.0,5.0,87,0.04,,,0.48,,2013-02-28 21:42:00,
2013-02-28 16:52:00,39.0,36.0,29.75,South,180,1.0,4.0,88,0.03,,,0.48,,2013-02-28 21:52:00,
2013-02-28 17:02:00,39.0,36.0,29.75,SSE,158,0.0,2.0,88,0.03,,,0.49,,2013-02-28 22:02:00,
2013-02-28 17:11:00,39.0,36.0,29.75,SSE,158,0.0,2.0,88,0.03,,,0.49,,2013-02-28 22:11:00,
2013-02-28 17:22:00,39.0,36.0,29.74,SSE,163,2.0,5.0,88,0.02,,,0.49,,2013-02-28 22:22:00,
2013-02-28 17:32:00,38.0,35.0,29.75,SSE,166,1.0,3.0,88,0.01,,,0.49,,2013-02-28 22:32:00,
2013-02-28 17:42:00,38.0,35.0,29.75,SSE,166,1.0,3.0,88,0.01,,,0.49,,2013-02-28 22:42:00,
2013-02-28 17:52:00,38.0,35.0,29.75,SE,142,0.0,3.0,89,0.02,,,0.50,,2013-02-28 22:52:00,
2013-02-28 18:02:00,37.0,34.0,29.76,SW,215,0.0,2.0,90,0.01,,,0.50,,2013-02-28 23:02:00,
2013-02-28 18:12:00,37.0,34.0,29.76,SW,215,0.0,2.0,90,0.01,,,0.50,,2013-02-28 23:12:00,
2013-02-28 18:22:00,37.0,35.0,29.76,SSW,197,0.0,2.0,91,0.01,,,0.50,,2013-02-28 23:22:00,
2013-02-28 18:32:00,36.0,34.0,29.76,SSW,195,0.0,0.0,92,0.02,,,0.51,,2013-02-28 23:32:00,
2013-02-28 18:42:00,36.0,34.0,29.76,SSW,195,0.0,0.0,92,0.02,,,0.51,,2013-02-28 23:42:00,
2013-02-28 18:52:00,35.0,33.0,29.77,ESE,113,0.0,1.0,93,0.01,,,0.51,,2013-02-28 23:52:00,
2013-02-28 19:02:00,36.0,34.0,29.77,SE,124,2.0,4.0,93,0.02,,,0.52,,2013-03-01 00:02:00,
2013-02-28 19:11:00,36.0,34.0,29.77,SE,124,2.0,4.0,93,0.02,,,0.52,,2013-03-01 00:11:00,
2013-02-28 19:22:00,36.0,34.0,29.77,South,169,1.0,3.0,92,0.02,,,0.52,,2013-03-01 00:22:00,
2013-02-28 19:32:00,35.0,33.0,29.77,ENE,78,0.0,3.0,92,0.01,,,0.52,,2013-03-01 00:32:00,
2013-02-28 19:42:00,35.0,33.0,29.77,ENE,78,0.0,3.0,92,0.01,,,0.52,,2013-03-01 00:42:00,
2013-02-28 19:51:00,35.0,33.0,29.77,WNW,300,0.0,1.0,92,0.01,,,0.52,,2013-03-01 00:51:00,
2013-02-28 20:01:00,34.0,32.0,29.76,WNW,300,0.0,0.0,92,0.00,,,0.52,,2013-03-01 01:01:00,
2013-02-28 20:11:00,34.0,32.0,29.76,WNW,300,0.0,0.0,92,0.00,,,0.52,,2013-03-01 01:11:00,
2013-02-28 20:22:00,34.0,32.0,29.77,WNW,300,0.0,1.0,93,0.00,,,0.52,,2013-03-01 01:22:00,
2013-02-28 20:32:00,34.0,32.0,29.77,SSE,155,0.0,1.0,94,0.01,,,0.53,,2013-03-01 01:32:00,
2013-02-28 20:42:00,34.0,32.0,29.77,SSE,155,0.0,1.0,94,0.01,,,0.53,,2013-03-01 01:42:00,
2013-02-28 20:52:00,34.0,32.0,29.77,SSW,202,1.0,2.0,94,0.01,,,0.53,,2013-03-01 01:52:00,
2013-02-28 21:01:00,33.0,32.0,29.77,SE,131,0.0,2.0,95,0.01,,,0.53,,2013-03-01 02:01:00,
2013-02-28 21:11:00,33.0,32.0,29.77,SSW,205,1.0,3.0,95,0.01,,,0.53,,2013-03-01 02:11:00,
2013-02-28 21:22:00,33.0,32.0,29.77,SSW,205,1.0,3.0,95,0.01,,,0.53,,2013-03-01 02:22:00,
2013-02-28 21:32:00,33.0,32.0,29.77,SSW,211,1.0,3.0,95,0.00,,,0.53,,2013-03-01 02:32:00,
2013-02-28 21:42:00,33.0,32.0,29.77,SSW,211,1.0,3.0,95,0.00,,,0.53,,2013-03-01 02:42:00,
2013-02-28 21:52:00,33.0,32.0,29.77,SSE,158,1.0,3.0,95,0.00,,,0.53,,2013-03-01 02:52:00,
2013-02-28 22:02:00,33.0,32.0,29.77,SSW,210,1.0,2.0,95,0.00,,,0.53,,2013-03-01 03:02:00,
2013-02-28 22:12:00,33.0,32.0,29.77,SSW,210,1.0,2.0,95,0.00,,,0.53,,2013-03-01 03:12:00,
2013-02-28 22:22:00,33.0,32.0,29.76,WNW,289,0.0,1.0,95,0.00,,,0.53,,2013-03-01 03:22:00,
2013-02-28 22:32:00,33.0,32.0,29.76,WNW,290,0.0,0.0,95,0.00,,,0.53,,2013-03-01 03:32:00,
2013-02-28 22:42:00,33.0,32.0,29.76,WNW,290,0.0,0.0,95,0.00,,,0.53,,2013-03-01 03:42:00,
2013-02-28 22:52:00,32.0,31.0,29.76,WNW,289,0.0,0.0,95,0.00,,,0.53,,2013-03-01 03:52:00,
2013-02-28 23:01:00,32.0,31.0,29.76,WNW,289,0.0,0.0,95,0.00,,,0.53,,2013-03-01 04:01:00,
2013-02-28 23:12:00,32.0,31.0,29.76,WNW,289,0.0,0.0,95,0.00,,,0.53,,2013-03-01 04:12:00,
2013-02-28 23:22:00,32.0,31.0,29.76,WNW,289,0.0,0.0,96,0.00,,,0.53,,2013-03-01 04:22:00,
2013-02-28 23:32:00,32.0,31.0,29.75,ENE,77,0.0,1.0,96,0.00,,,0.53,,2013-03-01 04:32:00,
2013-02-28 23:42:00,32.0,31.0,29.75,ENE,77,0.0,1.0,96,0.00,,,0.53,,2013-03-01 04:42:00,
2013-02-28 23:52:00,32.0,31.0,29.74,SSE,158,0.0,1.0,96,0.00,,,0.53,,2013-03-01 04:52:00,